Stations météo

Publicité
Bordeaux/Merignac, France (7510): Température de l'air & dewpoint: 19.01.2020 23:00:00 - 25.01.2020 23:00:00 (CET)Bordeaux/Merignac, France (7510): Température de l'air 5cm: 19.01.2020 23:00:00 - 25.01.2020 23:00:00 (CET)Bordeaux/Merignac, France (7510): Température de l'air -20cm & Température de l'air -100cm: 19.01.2020 23:00:00 - 25.01.2020 23:00:00 (CET)Bordeaux/Merignac, France (7510): Vitesse du vent & gusts: 19.01.2020 23:00:00 - 25.01.2020 23:00:00 (CET)Bordeaux/Merignac, France (7510): Direction du vent: 19.01.2020 23:00:00 - 25.01.2020 23:00:00 (CET)Bordeaux/Merignac, France (7510): reduced air pressure: 19.01.2020 23:00:00 - 25.01.2020 23:00:00 (CET)Bordeaux/Merignac, France (7510): visibility: 19.01.2020 23:00:00 - 25.01.2020 23:00:00 (CET)Bordeaux/Merignac, France (7510): Ensoleillement: 19.01.2020 23:00:00 - 25.01.2020 23:00:00 (CET)Bordeaux/Merignac, France (7510): Quantités de précipitations: 19.01.2020 23:00:00 - 25.01.2020 23:00:00 (CET)
Date & Time tt [°C] td [°C] tt 5cm [°C] tt -20cm [°C] tt -100cm [°C] ff [km/h] ff [knt] fx [km/h] fx [knt] dd ppp [hPa] vv [km] sd [min] rr [mm]
25.01.2020 23:00:00 9,2 8,0 7,6 9,1 10,3 4 2 9 5 SSW 1018,1 7 0 0,0
25.01.2020 22:00:00 9,7 8,3 8,0 9,2 10,3 3 1 8 4 S 1018,2 10 0 0,0
25.01.2020 21:00:00 9,7 7,8 7,6 9,2 10,3 4 2 9 5 SSE 1018,2 9 0 0,0
25.01.2020 20:00:00 10,2 8,0 8,9 9,2 10,3 4 2 10 5 SE 1018,0 12 0 0,0
25.01.2020 19:00:00 10,0 7,9 8,5 9,2 10,3 8 5 10 5 ESE 1017,6 15 0 0,0
25.01.2020 18:00:00 10,6 8,0 9,4 9,2 10,3 8 4 14 7 ESE 1017,3 19 0 0,0
25.01.2020 17:00:00 11,2 8,1 10,9 9,1 10,3 8 4 13 7 SE 1017,4 24 0 0,0
25.01.2020 16:00:00 11,6 7,7 11,7 8,9 10,3 9 5 14 7 ESE 1017,4 29 3 0,0
25.01.2020 15:00:00 11,7 7,8 11,6 8,8 10,3 8 5 13 7 ESE 1017,7 20 11 0,0
25.01.2020 14:00:00 10,2 7,6 10,8 8,7 10,3 6 4 13 7 E 1018,2 19 0 0,0
25.01.2020 13:00:00 9,4 7,5 9,0 8,6 10,3 10 5 16 9 ESE 1019,1 18 2 0,0
25.01.2020 12:00:00 8,6 7,2 7,8 8,5 10,3 11 6 20 11 SE 1019,8 14 23 0,0
25.01.2020 11:00:00 7,2 6,6 6,1 8,4 10,3 9 5 15 8 ESE 1019,7 9 5 0,0
25.01.2020 10:00:00 6,4 6,1 5,2 8,4 10,3 9 5 16 8 SE 1019,5 8 0 0,0
25.01.2020 09:00:00 5,9 5,6 4,7 8,5 10,3 9 5 13 7 ESE 1019,2 6 0 0,0
25.01.2020 08:00:00 6,1 5,8 4,9 8,5 10,3 9 5 13 7 ESE 1018,9 7 0 0,0
25.01.2020 07:00:00 6,2 5,9 5,1 8,5 10,3 7 4 15 8 ESE 1018,8 8 0 0,0
25.01.2020 06:00:00 6,0 5,9 4,8 8,6 10,3 10 5 16 8 ESE 1018,6 6 0 0,0
25.01.2020 05:00:00 5,9 5,8 4,0 8,7 10,3 11 6 14 8 ESE 1018,7 0,7 0 0,0
25.01.2020 04:00:00 5,8 5,7 3,1 8,8 10,3 11 6 13 7 ESE 1018,9 0,2 0 0,0
25.01.2020 03:00:00 5,9 5,6 2,1 8,9 10,3 8 4 9 5 ESE 1019,2 0,1 0 0,0
25.01.2020 02:00:00 6,8 6,5 4,5 9,0 10,2 6 4 11 6 E 1019,4 0,1 0 0,0
25.01.2020 01:00:00 7,0 6,7 2,7 9,1 10,3 5 3 10 5 E 1019,8 0,3 0 0,0
25.01.2020 00:00:00 7,3 6,7 3,5 9,2 10,2 4 2 7 4 SE 1020,2 0,3 0 0,0
24.01.2020 23:00:00 8,1 7,5 5,2 9,3 10,2 6 3 13 7 SSE 1020,2 9 0 0,0
24.01.2020 22:00:00 8,1 7,5 5,4 9,4 10,2 10 5 12 7 SE 1020,4 7 0 0,0
24.01.2020 21:00:00 8,1 7,2 5,4 9,5 10,2 9 5 11 6 SE 1020,3 10 0 0,0
24.01.2020 20:00:00 9,2 7,5 6,5 9,6 10,2 9 5 13 7 ESE 1020,2 11 0 0,0
24.01.2020 19:00:00 10,1 7,9 7,2 9,7 10,2 11 6 13 7 ESE 1020,0 14 0 0,0
24.01.2020 18:00:00 11,0 8,7 8,5 9,7 10,2 5 3 13 7 ESE 1019,7 16 0 0,0
24.01.2020 17:00:00 12,5 9,0 13,1 9,6 10,2 11 6 16 9 SE 1019,7 18 56 0,0
24.01.2020 16:00:00 12,0 9,0 12,3 9,5 10,2 10 6 14 8 ESE 1019,7 18 2 0,0
24.01.2020 15:00:00 12,3 8,8 13,2 9,3 10,2 9 5 14 8 ESE 1019,9 20 42 0,0
24.01.2020 14:00:00 12,5 8,8 13,8 9,1 10,2 11 6 18 10 SE 1020,5 19 60 0,0
24.01.2020 13:00:00 11,2 7,9 12,3 8,9 10,2 12 7 20 11 SE 1021,1 19 60 0,0
24.01.2020 12:00:00 9,7 7,5 10,0 8,8 10,1 11 6 28 15 SE 1021,7 18 35 0,0
24.01.2020 11:00:00 9,0 7,1 9,4 8,8 10,2 16 8 24 13 SE 1021,5 19 33 0,0
24.01.2020 10:00:00 8,3 7,1 6,7 8,8 10,2 11 6 18 10 SE 1021,4 18 23 0,0
24.01.2020 09:00:00 7,2 6,5 6,6 8,8 10,2 8 5 15 8 ESE 1021,1 16 0 0,0
24.01.2020 08:00:00 7,3 6,6 6,7 8,8 10,1 8 4 11 6 SE 1020,9 17 0 0,0
24.01.2020 07:00:00 7,3 6,7 6,7 8,8 10,1 8 4 11 6 ESE 1020,6 12 0 0,0
24.01.2020 06:00:00 7,2 6,8 6,6 8,9 10,1 7 4 13 7 ESE 1020,5 10 0 0,0
24.01.2020 05:00:00 7,2 6,8 6,6 8,9 10,1 10 5 16 8 SE 1020,4 10 0 0,0
24.01.2020 04:00:00 7,3 6,7 6,2 9,0 10,2 9 5 15 8 SE 1020,7 14 0 0,0
24.01.2020 03:00:00 7,4 6,7 6,2 9,0 10,1 0 0 13 7 N 1021,0 15 0 0,0
24.01.2020 02:00:00 7,7 7,1 5,7 9,1 10,1 8 5 11 6 SE 1020,9 3,2 0 0,0
24.01.2020 01:00:00 8,4 7,8 6,8 9,2 10,1 9 5 11 6 SSE 1020,9 11 0 0,0
24.01.2020 00:00:00 8,8 8,0 7,1 9,2 10,1 9 5 13 7 S 1020,6 12 0 0,0
23.01.2020 23:00:00 10,1 9,6 8,5 9,2 10,1 9 5 11 6 SSE 1020,5 2,3 0 0,0
23.01.2020 22:00:00 10,4 9,8 9,0 9,2 10,1 5 3 8 4 S 1020,2 7 0 0,2
23.01.2020 21:00:00 10,8 9,4 9,2 9,2 10,0 0 0 11 6 N 1020,1 3,0 0 1,8
23.01.2020 20:00:00 11,7 9,1 10,5 9,2 10,1 4 2 15 8 SSE 1019,9 9 0 0,0
23.01.2020 19:00:00 11,5 8,7 9,8 9,1 10,1 5 3 11 6 NNE 1019,6 12 0 0,0
23.01.2020 18:00:00 12,2 8,5 9,9 9,1 10,1 7 4 15 8 S 1019,5 21 0 0,0
23.01.2020 17:00:00 13,4 7,6 11,1 9,1 10,1 14 8 30 16 E 1019,1 18 0 0,2
23.01.2020 16:00:00 14,2 7,0 13,5 9,0 10,1 17 9 31 17 E 1018,8 43 0 0,0
23.01.2020 15:00:00 14,4 7,0 14,0 8,9 10,1 18 10 28 15 E 1018,7 43 0 0,0
23.01.2020 14:00:00 14,2 7,3 13,9 8,7 10,0 15 8 32 17 ENE 1019,2 36 0 0,0
23.01.2020 13:00:00 14,2 6,8 13,7 8,7 10,1 21 11 42 23 E 1020,3 39 0 0,0
23.01.2020 12:00:00 14,2 7,0 13,0 8,6 10,0 24 13 40 21 E 1020,7 35 0 0,0
23.01.2020 11:00:00 13,3 7,1 11,5 8,5 10,0 16 8 24 13 E 1021,0 31 0 0,0
23.01.2020 10:00:00 12,8 7,2 10,8 8,4 10,1 14 8 29 15 E 1020,9 26 0 0,0
23.01.2020 09:00:00 12,6 7,5 10,0 8,4 10,1 18 10 30 16 E 1020,8 20 0 0,0
23.01.2020 08:00:00 12,6 6,6 10,3 8,4 10,0 14 8 21 12 E 1020,7 33 0 0,0
23.01.2020 07:00:00 11,6 6,3 10,3 8,4 10,1 6 4 14 8 ENE 1020,9 35 0 0,0
23.01.2020 06:00:00 11,6 6,1 10,3 8,3 10,0 10 5 20 11 ENE 1020,9 39 0 0,0
23.01.2020 05:00:00 11,7 5,8 10,4 8,3 10,1 10 5 19 10 ENE 1020,9 43 0 0,0
23.01.2020 04:00:00 11,8 5,6 10,7 8,3 10,1 14 7 26 14 ENE 1021,3 48 0 0,0
23.01.2020 03:00:00 11,8 6,1 10,9 8,2 10,1 13 7 32 18 ENE 1021,4 40 0 0,0
23.01.2020 02:00:00 12,5 6,1 10,1 8,2 10,1 23 12 35 19 ENE 1021,2 42 0 0,0
23.01.2020 01:00:00 10,9 7,0 9,0 8,2 10,1 13 7 26 14 ENE 1021,7 31 0 0,0
23.01.2020 00:00:00 9,9 7,5 8,8 8,2 10,1 14 7 19 11 NE 1022,0 28 0 0,0
22.01.2020 23:00:00 9,4 7,5 8,0 8,1 10,1 14 8 22 12 NE 1022,1 26 0 0,0
22.01.2020 22:00:00 9,0 7,4 7,7 8,1 10,1 16 9 25 13 NE 1022,4 13 0 0,2
22.01.2020 21:00:00 8,5 7,3 7,8 8,1 10,1 19 10 25 14 NNE 1022,9 8 0 1,3
22.01.2020 20:00:00 9,1 8,3 8,5 8,0 10,1 12 7 16 9 NNE 1023,4 3,0 0 2,8
22.01.2020 19:00:00 10,0 8,8 9,2 7,9 10,1 11 6 16 9 NNE 1023,6 6 0 1,2
22.01.2020 18:00:00 10,9 9,2 9,3 7,9 10,1 10 5 22 12 E 1023,8 7 0 1,6
22.01.2020 17:00:00 11,4 7,5 9,4 7,8 10,1 12 6 20 11 ENE 1024,0 11 0 0,2
22.01.2020 16:00:00 11,7 6,0 11,3 7,6 10,1 13 7 27 15 ENE 1024,0 49 0 0,0
22.01.2020 15:00:00 11,3 6,4 10,5 7,5 10,1 15 8 27 14 NE 1024,2 45 0 0,0
22.01.2020 14:00:00 10,5 7,2 8,8 7,3 10,1 21 11 32 17 NNE 1024,8 33 2 0,0
22.01.2020 13:00:00 8,9 7,5 7,2 7,2 10,1 18 10 26 14 NNE 1025,9 27 0 0,4
22.01.2020 12:00:00 8,4 4,8 7,1 7,1 10,1 16 8 31 17 NE 1027,0 12 0 0,4
22.01.2020 11:00:00 8,4 0,1 5,9 7,1 10,2 13 7 21 11 ENE 1027,1 43 0 0,0
22.01.2020 10:00:00 5,9 -1,5 5,0 7,1 10,2 13 7 18 10 NNE 1027,1 43 0 0,0
22.01.2020 09:00:00 5,7 -2,4 4,4 7,1 10,2 12 6 22 12 NE 1027,2 52 0 0,0
22.01.2020 08:00:00 5,5 -2,4 3,8 7,2 10,1 16 8 23 12 NE 1027,2 52 0 0,0
22.01.2020 07:00:00 5,4 -2,0 3,7 7,2 10,1 13 7 21 11 NE 1027,3 50 0 0,0
22.01.2020 06:00:00 5,2 -1,1 3,4 7,3 10,2 12 7 18 10 NE 1027,7 43 0 0,0
22.01.2020 05:00:00 4,9 -0,3 3,1 7,4 10,2 16 9 19 10 NNE 1028,0 45 0 0,0
22.01.2020 04:00:00 4,8 0,4 1,0 7,4 10,2 8 5 13 7 NE 1028,9 35 0 0,0
22.01.2020 03:00:00 4,0 0,7 1,4 7,5 10,2 7 4 12 6 NNE 1029,6 29 0 0,0
22.01.2020 02:00:00 4,4 1,2 1,9 7,6 10,2 8 4 16 8 N 1029,8 22 0 0,0
22.01.2020 01:00:00 5,2 1,9 3,5 7,7 10,2 13 7 18 10 NNE 1030,4 21 0 0,0
22.01.2020 00:00:00 6,1 2,2 5,0 7,7 10,2 14 8 27 15 NNE 1030,8 22 0 0,0
21.01.2020 23:00:00 6,4 2,3 5,6 7,8 10,3 20 11 29 16 NNE 1030,8 25 0 0,0
21.01.2020 22:00:00 7,0 2,5 6,1 7,7 10,2 21 12 30 16 NNE 1030,9 29 0 0,0
21.01.2020 21:00:00 8,5 2,7 7,6 7,8 10,3 18 10 27 15 NNE 1030,9 35 0 0,0
21.01.2020 20:00:00 8,9 2,7 8,0 7,8 10,3 20 11 29 16 NNE 1030,7 43 0 0,0
21.01.2020 19:00:00 9,4 2,9 8,2 7,8 10,3 18 10 24 13 NNE 1030,6 38 0 0,0
21.01.2020 18:00:00 10,1 2,7 9,0 7,7 10,3 11 6 29 16 NNE 1030,7 40 0 0,0
21.01.2020 17:00:00 11,6 2,6 11,4 7,6 10,3 21 11 30 16 NE 1030,7 49 58 0,0
21.01.2020 16:00:00 12,2 2,6 13,4 7,5 10,3 21 11 35 19 ENE 1031,3 37 60 0,0
21.01.2020 15:00:00 11,5 2,8 11,7 7,3 10,3 22 12 33 18 NE 1031,7 35 60 0,0
21.01.2020 14:00:00 9,0 1,2 8,2 7,2 10,3 19 10 31 17 NE 1032,7 32 22 0,0
21.01.2020 13:00:00 7,5 0,0 5,7 7,0 10,4 19 10 29 16 NE 1033,8 29 40 0,0
21.01.2020 12:00:00 5,1 -0,9 4,6 7,0 10,4 14 8 24 13 NE 1034,7 28 0 0,0
21.01.2020 11:00:00 3,7 -1,1 3,1 7,0 10,4 16 9 26 14 NE 1034,8 20 0 0,0
21.01.2020 10:00:00 2,7 -1,3 2,1 7,0 10,4 16 9 23 13 NE 1034,7 28 0 0,0
21.01.2020 09:00:00 2,2 -1,2 1,4 7,0 10,4 14 7 19 10 NE 1034,8 29 0 0,0
21.01.2020 08:00:00 2,3 -1,1 2,0 7,0 10,4 13 7 23 12 NNE 1034,7 30 0 0,0
21.01.2020 07:00:00 2,1 -1,3 1,6 7,0 10,4 12 6 18 10 NE 1034,9 32 0 0,0
21.01.2020 06:00:00 2,0 -1,4 1,6 7,1 10,5 14 7 18 10 NNE 1034,9 34 0 0,0
21.01.2020 05:00:00 2,0 -1,6 1,6 7,1 10,5 13 7 19 10 NNE 1034,9 36 0 0,0
21.01.2020 04:00:00 2,1 -1,7 1,7 7,1 10,4 12 6 21 12 NE 1035,4 41 0 0,0
21.01.2020 03:00:00 2,4 -2,0 1,8 7,1 10,4 14 8 20 11 NNE 1035,9 43 0 0,0
21.01.2020 02:00:00 2,3 -2,0 1,8 7,2 10,5 12 7 18 10 NNE 1036,0 39 0 0,0
21.01.2020 01:00:00 2,5 -1,9 1,7 7,3 10,5 11 6 16 9 NNE 1036,6 33 0 0,0
21.01.2020 00:00:00 2,5 -1,9 1,2 7,4 10,5 13 7 17 9 NNE 1037,4 32 0 0,0
20.01.2020 23:00:00 3,0 -2,1 1,7 7,5 10,5 13 7 22 12 NE 1037,2 34 0 0,0
20.01.2020 22:00:00 3,2 -2,1 1,9 7,6 10,5 15 8 25 13 NE 1037,3 48 0 0,0
20.01.2020 21:00:00 4,0 -2,2 2,8 7,6 10,5 16 9 27 15 NE 1037,4 42 0 0,0
20.01.2020 20:00:00 4,8 -2,3 3,8 7,7 10,6 20 11 29 15 NNE 1037,3 49 0 0,0
20.01.2020 19:00:00 5,7 -2,4 4,2 7,7 10,5 18 10 28 15 NE 1037,2 56 0 0,0
20.01.2020 18:00:00 6,5 -2,4 5,1 7,8 10,6 17 9 35 19 NE 1036,5 60 38 0,0
20.01.2020 17:00:00 7,6 -3,0 8,3 7,8 10,6 24 13 37 20 NE 1036,2 49 60 0,0
20.01.2020 16:00:00 8,0 -2,4 9,8 7,7 10,6 27 14 37 20 NE 1036,2 34 60 0,0
20.01.2020 15:00:00 7,7 -2,6 10,2 7,6 10,6 24 13 35 19 NE 1036,4 29 60 0,0
20.01.2020 14:00:00 7,0 -1,9 8,9 7,4 10,6 23 13 37 20 NE 1036,8 30 60 0,0
20.01.2020 13:00:00 6,4 -1,5 6,8 7,3 10,6 23 13 39 21 ENE 1037,5 20 60 0,0
20.01.2020 12:00:00 5,6 -0,9 6,3 7,3 10,6 27 15 42 23 NE 1038,0 18 60 0,0
20.01.2020 11:00:00 4,4 -0,4 4,5 7,2 10,6 23 12 38 21 NE 1038,4 20 60 0,0
20.01.2020 10:00:00 3,3 -0,2 2,2 7,3 10,7 26 14 40 21 NNE 1038,0 19 60 0,0
20.01.2020 09:00:00 2,4 -0,2 1,4 7,4 10,7 24 13 37 20 NNE 1037,7 33 7 0,0
20.01.2020 08:00:00 2,4 0,1 1,4 7,4 10,7 22 12 37 20 NNE 1037,6 34 0 0,0
20.01.2020 07:00:00 2,5 0,2 1,6 7,5 10,7 26 14 37 20 NNE 1037,5 33 0 0,0
20.01.2020 06:00:00 2,5 -0,1 1,6 7,6 10,7 25 14 37 20 NNE 1037,3 37 0 0,0
20.01.2020 05:00:00 2,5 -0,1 1,5 7,6 10,7 24 13 37 20 NNE 1037,8 34 0 0,0
20.01.2020 04:00:00 2,8 0,0 2,0 7,7 10,7 24 13 37 20 NNE 1038,4 37 0 0,0
20.01.2020 03:00:00 3,0 0,1 2,2 7,8 10,7 23 13 42 23 NNE 1038,6 42 0 0,0
20.01.2020 02:00:00 3,5 0,4 2,6 7,9 10,7 25 14 36 20 NNE 1039,0 41 0 0,0
20.01.2020 01:00:00 3,9 0,4 3,0 8,0 10,7 23 13 37 20 NNE 1039,3 36 0 0,0
20.01.2020 00:00:00 4,1 0,4 3,0 8,0 10,7 20 11 29 16 NNE 1039,5 53 0 0,0
19.01.2020 23:00:00 4,3 -0,1 3,1 8,2 10,8 17 9 29 16 NNE 1039,3 54 0 0,0

tt = Température de l'air
td = dewpoint
tt 5cm = Température de l'air 5cm
tt -20cm = Température de l'air -20cm
tt -100cm = Température de l'air -100cm
ff = Vitesse du vent
fx = gusts
dd = Direction du vent
ppp = reduced air pressure
vv = visibility
sd = Ensoleillement
rr = Quantités de précipitations

stations d'obs. à proximité